Location: Kott?ru
(16.6209°N, 80.6208°E)
Time: 13:23:56
(UTC+00:00)

XW-2C - Pass Details

Date: 26 April 2024
Orbit: 437 x 450 km, 97.5° (Epoch: 21 May)

Event Time Altitude Azimuth Distance (km) Brightness Sun altitude
Rises 13:27:03 0° 190° (S) 2,467 ? -8.1°
Reaches altitude 10° 13:29:20 10° 204° (SSW) 1,592 ? -8.6°
Maximum altitude 13:32:11 24° 261° (W) 971 ? -9.2°
Drops below altitude 10° 13:35:01 10° 317° (NW) 1,586 ? -9.9°
Sets 13:37:18 0° 331° (NNW) 2,454 ? -10.4°
